Station 41037 - Wrightsville Beach Offshore, NC (ILM3) Image indicating link to RSS feed of recent meteorological observations for station 41037


Conditions at 41037 as of
(6:08 pm EDT)
2208 GMT on 05/19/2024:
     

Click on the graph icon in the table below to see a time series plot of the last five days of that observation.

5-day plot - Wind Direction Wind Direction (WDIR):NNE ( 30 deg true )
5-day plot - Wind Speed Wind Speed (WSPD): 15.5 kts
5-day plot - Wind Gust Wind Gust (GST): 19.4 kts
5-day plot - Atmospheric Pressure Atmospheric Pressure (PRES):29.92 in
5-day plot - Air Temperature Air Temperature (ATMP): 69.3 °F
5-day plot - Water Temperature Water Temperature (WTMP): 71.4 °F
5-day plot - Dew Point Dew Point (DEWP): 62.6 °F
5-day plot - Wind Speed at 10 Meters Wind Speed at 10 meters (WSPD10M): 17.5 kts
5-day plot - Wind Speed at 20 Meters Wind Speed at 20 meters (WSPD20M): 19.4 kts
5-day plot -  Wind Speed, Wind Gust and Atmospheric Pressure Combined plot of Wind Speed, Gust, and Air Pressure
Previous observations
TIME
(EDT)
5-day plot - Wind Direction
WDIR
 
5-day plot - Wind Speed
WSPD
kts
5-day plot - Wind Gust
GST
kts
5-day plot - Wave Height
WVHT
ft
5-day plot - Dominant Wave Period
DPD
sec
5-day plot - Average Wave Period
APD
sec
5-day plot - Mean Wave Direction
MWD
 
5-day plot - Atmospheric Pressure
PRES
in
5-day plot - Pressure Tendency
PTDY
in
5-day plot - Air Temperature
ATMP
°F
5-day plot - Water Temperature
WTMP
°F
5-day plot - Dew Point
DEWP
°F
5-day plot - Salinity
SAL
psu
5-day plot - Visibility
VIS
nmi
5-day plot - Tide (above MLLW)
TIDE
ft
2024-05-19 05:08 pmNNE 15.5 21.4----29.90- 68.7 71.4 62.6---
2024-05-19 04:08 pm NE 15.5 21.4----29.91- 68.2 71.4 63.3---
2024-05-19 03:08 pm NE 15.5 21.4----29.92- 67.6 71.4 63.1---
2024-05-19 02:08 pm NE 17.5 23.3----29.91- 67.5 71.2 63.1---
2024-05-19 01:08 pmENE 15.5 19.4----29.92- 67.1 71.2 63.1---
2024-05-19 12:08 pmENE 17.5 25.3----29.93- 66.9 71.2 63.0---
2024-05-19 11:08 am NE 19.4 19.4----29.93- 67.6 71.2 63.5---
2024-05-19 10:08 am NE 19.4 23.3----29.92- 67.1 71.2 63.1---
2024-05-19 09:08 am NE 15.5 21.4----29.91- 67.8 71.2 64.0---
2024-05-19 08:08 amNNE 15.5 21.4----29.90- 68.4 71.4 64.8---
2024-05-19 07:08 amNNE 13.6 17.5----29.88- 69.6 71.4 65.7---
2024-05-19 06:08 am W 7.8 9.7----29.86- 72.0 71.6 68.0---
2024-05-19 05:08 amWSW 7.8 9.7----29.85- 72.1 71.6 68.4---
2024-05-19 04:08 amWSW 9.7 13.6----29.85- 72.5 71.8 68.5---
2024-05-19 03:08 am W 5.8 9.7----29.86- 72.7 71.8 68.4---
2024-05-19 02:08 am W 9.7 15.5----29.87- 72.7 71.8 68.7---
2024-05-19 01:08 am SW 13.6 17.5----29.88- 72.9 71.8 68.9---
2024-05-19 12:08 am SW 13.6 19.4----29.88- 72.9 71.8 68.9---
2024-05-18 11:08 pmSSW 13.6 15.5----29.86- 73.2 72.0 68.9---
2024-05-18 10:08 pm SW 15.5 21.4----29.86- 73.2 72.1 68.9---
2024-05-18 09:08 pmSSW 11.7 15.5----29.83- 73.6 72.1 69.3---
2024-05-18 08:08 pm S 17.5 25.3----29.84- 73.4 72.1 69.6---
2024-05-18 07:08 pmSSW 15.5 21.4----29.82- 73.8 72.1 69.8---